Location: Eckley
(40.9930°N, 75.8630°W)
Time: 05:50:36
(UTC-05:00)

Daily predictions for brighter satellites

Satellite Brightness Start Highest point End
(mag) Time Altitude Azimuth Time Altitude Azimuth Time Altitude Azimuth
Cosmos 2237 Rocket 4.2 03:54:16 24° ESE 03:54:16 24° ESE 03:56:43 10° SE
SL-16 R/B 4.4 03:53:47 19° NE 03:54:15 19° NE 03:58:16 10° E
Cosmos 2297 Rocket 3.7 04:05:02 32° E 04:05:02 32° E 04:09:11 10° NE
Cosmos 2227 Rocket 3.6 04:18:47 33° NE 04:18:47 33° NE 04:21:54 10° NNE
USA 234 4.4 04:32:37 10° E 04:38:17 32° NNE 04:40:04 28° N
Cosmos 2082 4.0 04:45:40 58° NNE 04:45:40 58° NNE 04:50:14 10° NNE
Cosmos 2333 Rocket 3.5 04:50:14 28° S 04:50:14 28° S 04:52:55 10° S
Cosmos 2219 Rocket 4.2 05:11:11 13° SSW 05:11:11 13° SSW 05:11:56 10° SSW
Cosmos 1743 Rocket 3.6 05:09:30 67° NNE 05:09:57 74° E 05:14:21 10° SSE
Cosmos 2233 Rocket 4.1 05:06:19 10° S 05:12:31 76° E 05:18:49 10° N
DMSP 5D-2 F-14 4.5 05:07:39 10° N 05:13:05 75° WNW 05:18:29 10° SSW
Cosmos 1842 Rocket 3.7 05:14:55 10° S 05:19:13 71° E 05:23:34 10° NNE
COSMO-SKYMED 1 2.5 05:15:42 10° SSE 05:20:02 87° ENE 05:21:11 49° N
NOAA 6 3.9 05:21:34 10° N 05:26:44 67° WNW 05:31:52 10° SSW
Cosmos 968 Rocket 3.6 05:22:05 10° SSW 05:27:19 75° ESE 05:32:37 10° NNE
SeaSat 1 4.4 05:23:57 10° N 05:25:11 15° N 05:25:11 15° N
CSL-04 Rocket 4.4 05:24:22 10° NNE 05:29:33 52° E 05:34:40 10° S
Cosmos 1816 Rocket 4.4 05:24:26 10° NNW 05:30:42 65° W 05:36:52 10° S
BREEZE-M DEB (TANK) 4.3 05:31:43 20° N 05:31:43 20° N 05:33:09 10° NE
Cosmos 2151 3.4 05:29:58 10° N 05:34:09 61° E 05:38:20 10° SSE
Cosmos 2237 Rocket 3.0 05:36:10 30° WSW 05:36:10 30° WSW 05:40:18 10° SSW
Cosmos 1500 Rocket 3.4 05:34:37 22° NNW 05:37:28 77° W 05:41:55 10° S
USA 229 DEB 3.8 05:33:34 28° NW 05:37:30 65° WSW 05:44:38 10° SSE
USA 229 3.8 05:33:38 28° NW 05:37:36 65° WSW 05:44:45 10° SSE
SL-16 R/B 2.1 05:35:44 26° NNW 05:38:56 69° WSW 05:44:33 10° SSE
Tsikada Rocket 4.3 05:34:19 10° NNW 05:40:20 44° W 05:46:15 10° SSW
Cosmos 2346 Rocket 4.3 05:35:46 10° N 05:41:54 74° W 05:47:56 10° S
Cosmos 2297 Rocket 2.8 05:46:57 31° W 05:48:07 34° WNW 05:53:16 10° N
NOSS 3-1 (A) 4.5 05:44:01 11° NNW 05:51:15 61° NE 05:59:29 10° SE
Meteor 1-11 4.3 05:45:31 10° N 05:51:22 86° ENE 05:57:11 10° S
Cosmos 220 Rocket 4.1 05:48:39 10° SW 05:52:59 53° WNW 05:57:19 10° N
Cosmos 1340 Rocket 3.0 05:50:01 10° N 05:53:57 70° E 05:57:53 10° SSE
Cosmos 1777 Rocket 4.2 05:52:14 10° S 05:57:26 73° ESE 06:02:38 10° NNE
Aureole 2 Rocket 3.7 05:57:16 30° W 05:57:37 31° W 06:01:19 10° SSW
Cosmos 540 Rocket 4.4 05:58:34 25° W 05:58:49 25° W 06:02:57 10° SSW
Cosmos 2227 Rocket 3.3 06:00:39 22° NW 06:00:49 22° NW 06:05:09 10° N
Cosmos 1464 Rocket 4.1 05:55:05 10° S 06:01:26 83° E 06:07:45 10° N
Meteor 1-16 Rocket 4.0 05:56:22 10° SSW 06:01:47 66° W 06:07:07 10° N
Cosmos 1271 Rocket 2.5 05:59:23 10° SSW 06:03:13 73° W 06:07:02 10° N
IDEFIX/ARIANE 42P 3.4 05:59:28 10° NNE 06:04:40 55° E 06:09:49 10° S
SL-14 R/B 3.4 06:02:55 10° NNW 06:06:53 52° W 06:10:50 10° S
OAO 2 Rocket 4.2 06:04:02 18° WSW 06:07:18 40° S 06:11:53 10° ESE
ISS -3.4 06:06:00 32° WNW 06:07:21 79° SW 06:10:36 10° SE
Cosmos 304 Rocket 4.2 06:05:04 19° NW 06:08:00 39° WSW 06:12:25 10° S
SKYMED 2 4.5 06:04:35 10° SSW 06:08:17 27° W 06:09:51 22° WNW
Meteor 1-28 Rocket 3.7 06:04:47 10° SSW 06:08:17 37° W 06:10:38 18° NW
Meteor 1-4 Rocket 3.5 06:09:19 10° SW 06:12:31 27° WNW 06:15:48 10° NNW
YAOGAN 1 3.6 06:10:52 10° NNE 06:15:06 50° E 06:19:17 10° S
Meteor 2-1 Rocket 4.2 06:14:21 10° SSW 06:19:55 73° W 06:25:40 10° N
CZ-4 R/B 1.4 06:15:55 10° NNE 06:19:59 86° ESE 06:24:05 10° SSW
Meteor 2-12 Rocket 4.4 06:14:14 10° SSW 06:20:20 73° W 06:26:31 10° N
USA 234 3.3 06:14:10 10° SE 06:20:44 83° NE 06:27:20 10° NW
Cosmos 1072 Rocket 4.4 06:14:37 10° SSW 06:20:45 64° W 06:26:51 10° N
Cosmos 1538 Rocket 4.3 06:16:37 10° NNW 06:21:47 48° WSW 06:26:54 10° S
Cosmos 1943 4.2 06:17:15 10° NNW 06:22:46 47° ENE 06:28:14 10° SE
ERBS 2.3 06:23:54 16° NW 06:26:36 88° SW 06:30:01 10° SE
Aureole 1 4.2 06:24:03 10° SSW 06:27:02 60° WNW 06:30:30 10° NNE
Cosmos 1626 2.2 06:23:43 10° N 06:27:28 82° E 06:31:12 10° S
Cosmos 1666 Rocket 3.8 06:23:30 10° N 06:27:58 74° E 06:32:26 10° SSE
Cosmos 923 Rocket 4.0 06:24:05 10° NNW 06:29:21 89° ENE 06:34:36 10° SSE
Meteor 1-29 4.1 06:27:45 10° SSE 06:31:07 45° ENE 06:34:29 10° N
NOSS 3-1 (C) 4.1 06:25:26 10° NW 06:33:01 68° WSW 06:41:19 10° SSE
Ariane Rocket 3.6 06:29:06 10° N 06:33:39 33° WNW 06:38:10 10° SW
PSLV R/B 3.8 06:30:21 10° WSW 06:33:40 55° SSE 06:36:58 10° E
Coronas F rocket 2.0 06:33:52 10° N 06:36:14 49° E 06:38:34 10° SSE
Cosmos 2221 2.9 06:32:07 10° SSW 06:36:15 42° WNW 06:40:23 10° N
SL-8 R/B 4.0 06:34:13 12° WNW 06:38:40 60° NNE 06:43:24 10° ESE
Cosmos 1680 Rocket 3.7 06:33:22 10° NNW 06:38:42 83° ENE 06:44:01 10° SSE
CSL-04 Debris 4.5 06:33:49 10° N 06:39:01 45° WNW 06:44:11 10° SW
TELKOM 3 3.3 06:36:36 10° WSW 06:39:06 43° NNW 06:41:10 10° NE
MSX 4.1 06:36:36 10° NNE 06:42:24 77° ESE 06:48:10 10° S
Cosmos 1603 3.8 06:37:13 10° NNW 06:42:43 56° WSW 06:48:13 10° S
CORIOLIS 4.3 06:37:42 10° NNE 06:43:09 88° ESE 06:48:35 10° SSW
Cosmos 389 Rocket 2.6 06:45:17 10° S 06:48:56 89° WNW 06:52:38 10° N
Cosmos 1908 3.1 06:45:59 10° S 06:49:48 82° W 06:53:39 10° N
Cosmos 2263 Rocket 2.9 06:45:29 10° S 06:51:03 61° ESE 06:56:40 10° NNE
AQUARIUS 4.3 06:48:37 10° N 06:53:01 53° WNW 06:57:23 10° SSW
Cosmos 2058 4.2 06:50:24 10° NW 06:53:31 21° W 06:56:37 10° SW
Cosmos 2228 Rocket 3.1 06:52:47 10° S 06:57:15 89° ESE 07:01:42 10° N
Iridium 4 Rocket 4.0 06:54:57 10° N 06:59:07 54° E 07:03:31 10° SSE
Cosmos 1470 Rocket 4.0 06:56:00 10° N 07:00:19 67° E 07:04:37 10° SSE
